sat.trackr.live / text

‹ back to catalog

STARLINK-35779

NORAD 67047 · 2025-294T

PAYLOAD ACTIVE UNKNOWN

§ Identity

Operator
Country
US
Launch date
2025-12-11
Launch site
AFETR
Launch vehicle
Mass (kg)
RCS (m²)

Purposes: comms

External: N2YO · Heavens-Above · Gunter

§ Orbital elements

Epoch: 2026-05-24T21:18:22.070880Z

Period
94.27 min
Inclination
43.0012°
Eccentricity
0.0001687
Mean motion
15.27585506 rev/d
Perigee alt
481.9 km
Apogee alt
484.2 km
Semi-major
6,861.2 km
B*
4.8323e-4
RAAN
327.6700°
Arg perigee
271.8211°
Mean anomaly
88.2448°
Rev number
2,645

§ Raw data

STARLINK-357791 67047U 25294T   26144.88775545  .00013061  00000+0  48323-3 0  99952 67047  43.0012 327.6700 0001687 271.8211  88.2448 15.27585506 26450

JSON: /api/v1/satellites/67047 · /tle

For live sub-satellite position, see the globe view (requires WebGL).

§ Visibility from observer

Set your observer location to see the next 7 days of passes ≥ 10°. The values pass through the URL so the page stays shareable.

No JS? Fill the form by hand. The geolocation button needs JavaScript.